Powrót do katalogu

UNIFORM 1

AktywnyMilitariaSSO
NORAD 39767·PAYLOAD·🇯🇵 Japan

Wystrzelony May 24, 2014 z Tanegashima Space Center

Loading…

Następne Przeloty (najbliższe 24 godziny)

TLE

ŚwieżeSource: Space-Track

Epoka: Sep 14, 2026, 05:41 UTC

1 39767U 14029B   26257.23701730  .00001691  00000-0  15530-3 0  9997
2 39767  97.8068 354.3355 0005631  28.6415 331.5115 14.96179770667538

Śledź UNIFORM 1 w czasie rzeczywistym z AllMySat

Download on the App Store